Regional Weather Roundup
Issued by NWS

Home | Current Version | Previous Version | Graphics & Text | Print | Product List | Glossary On
Versions: 1 2 3 4 5 6 7 8 9 10 11 12 13 14 15 16 17 18 19 20 21 22 23 24 25 26 27 28 29 30 31 32 33 34 35 36 37 38 39 40 41 42 43 44 45 46 47 48 49 50
000
ASUS45 KCYS 281110
RWRWY

WYOMING REGIONAL WEATHER ROUNDUP
NATIONAL WEATHER SERVICE CHEYENNE WY
400 AM MST SUN DEC 28 2014

NOTE:  "FAIR" INDICATES FEW OR NO CLOUDS BELOW 12,000 FEET
WITH NO SIGNIFICANT WEATHER AND/OR OBSTRUCTIONS TO VISIBILITY.

WYZ001-281200-
YELLOWSTONE NATIONAL PARK

CITY           SKY/WX    TMP DP  RH WIND       PRES   REMARKS
LK YELLOWSTONE   N/A     11   7  84 VRB3      29.86F
W YELLOWSTONE  NOT AVBL

$$
WYZ002>013-054>058-071-098>099-281200-
NORTHERN WYOMING

CITY           SKY/WX    TMP DP  RH WIND       PRES   REMARKS
JACKSON        CLOUDY    16  16 100 SW8       29.95F VSB 1   WCI   5
CODY           FAIR      27   7  43 W7G22     29.82F WCI  19
GREYBULL       FAIR       3  -1  83 CALM      29.93F
WORLAND        CLOUDY     1  -4  79 CALM      29.92F
SHERIDAN       CLOUDY     9   3  77 W3        29.85S
BUFFALO        FAIR      16   4  59 SW6       29.82F WCI   7
GILLETTE       FAIR      14   5  67 S9        29.84F WCI   2
HULETT           N/A    N/A N/A N/A MISG        N/A
NEWCASTLE      FAIR      10   5  79 N3        29.93F

$$
WYZ014>020-022>026-101>103-281200-
CENTRAL WYOMING

CITY           SKY/WX    TMP DP  RH WIND       PRES   REMARKS
BIG PINEY      FLURRIES  -7 -11  83 SW3       29.98F
PINEDALE       LGT SNOW   1   0  92 W3        29.97F
DUBOIS         NOT AVBL
LANDER         FAIR       5  -2  72 SE6       29.85F WCI  -6
RIVERTON       FAIR      11   0  61 SW9       29.86F WCI  -2
CASPER         CLOUDY    20  10  65 SW17G26   29.89F WCI   5
DOUGLAS        FAIR      23  11  60 W13       29.88F WCI  11

$$
WYZ021-027>030-104>119-281200-
SOUTHERN WYOMING

CITY           SKY/WX    TMP DP  RH WIND       PRES   REMARKS
EVANSTON       CLOUDY    15   6  67 SW10      30.01F WCI   2
FORT BRIDGER   CLOUDY    20   7  56 W20G25    30.01F WCI   5
ROCK SPRINGS   LGT SNOW  14  10  84 W12       29.99F FOG     WCI   0
DIXON          CLOUDY    19   8  62 S15       30.08S WCI   4
RAWLINS        CLOUDY    16   8  71 SW18G30   29.95F WCI   0
SARATOGA       CLOUDY    18   9  68 CALM      29.98S
LARAMIE        FAIR      17   6  62 W26G44    29.86F WCI  -2
CHEYENNE       FAIR      16   1  51 W10       29.90F WCI   4
TORRINGTON     FAIR       2  -3  80 NE10      29.95F WCI -14
PINE BLUFFS    FAIR      -4  -8  84 MISG      29.95F

$$



USA.gov is the U.S. government's official web portal to all federal, state and local government web resources and services.